Saint Bonnet de Bellac- Haute Vienne - France
Donnes mto: jeudi, 26/07/2012
Date Horaire Temp. E. Hum. E. P.atmo. Pluie Vent Direction Direction Ensoleilleme Solaire P. de rose Temp au vent Rafales
26/07/2012 00:00 22,0 C 65 % 1014,2 hPa 0,0 mm 0,0 km/h (0 Bft) NE 45 0 min 0 W/m 15,1 C 22,0 C 0,0 km/h (0 Bft)
26/07/2012 00:10 21,8 C 66 % 1014,3 hPa 0,0 mm 0,0 km/h (0 Bft) NE 45 0 min 0 W/m 15,2 C 21,8 C 0,0 km/h (0 Bft)
26/07/2012 00:20 21,6 C 67 % 1014,3 hPa 0,0 mm 0,0 km/h (0 Bft) NE 45 0 min 0 W/m 15,2 C 21,6 C 0,0 km/h (0 Bft)
26/07/2012 00:30 21,4 C 67 % 1014,4 hPa 0,0 mm 0,0 km/h (0 Bft) NE 45 0 min 0 W/m 15,0 C 21,4 C 0,0 km/h (0 Bft)
26/07/2012 00:40 21,3 C 67 % 1014,4 hPa 0,0 mm 0,7 km/h (0 Bft) E 90 0 min 0 W/m 14,9 C 21,3 C 0,7 km/h (0 Bft)
26/07/2012 00:50 21,2 C 70 % 1014,4 hPa 0,0 mm 0,0 km/h (0 Bft) E-SE 112 0 min 0 W/m 15,5 C 21,2 C 0,0 km/h (0 Bft)
26/07/2012 01:00 21,1 C 71 % 1014,5 hPa 0,0 mm 3,2 km/h (1 Bft) E-SE 112 0 min 0 W/m 15,6 C 21,1 C 4,0 km/h (1 Bft)
26/07/2012 01:10 21,3 C 73 % 1014,4 hPa 0,0 mm 0,0 km/h (0 Bft) E-SE 112 0 min 0 W/m 16,3 C 21,3 C 0,0 km/h (0 Bft)
26/07/2012 01:20 21,2 C 72 % 1014,4 hPa 0,0 mm 0,0 km/h (0 Bft) E-SE 112 0 min 0 W/m 15,9 C 21,2 C 0,0 km/h (0 Bft)
26/07/2012 01:30 21,1 C 73 % 1014,4 hPa 0,0 mm 0,0 km/h (0 Bft) E-SE 112 0 min 0 W/m 16,1 C 21,1 C 0,0 km/h (0 Bft)
26/07/2012 01:40 20,9 C 72 % 1014,4 hPa 0,0 mm 0,0 km/h (0 Bft) E-SE 112 0 min 0 W/m 15,7 C 20,9 C 0,0 km/h (0 Bft)
26/07/2012 01:50 20,6 C 73 % 1014,4 hPa 0,0 mm 0,0 km/h (0 Bft) E-SE 112 0 min 0 W/m 15,6 C 20,6 C 0,0 km/h (0 Bft)
26/07/2012 02:00 20,4 C 75 % 1014,4 hPa 0,0 mm 0,0 km/h (0 Bft) E-SE 112 0 min 0 W/m 15,8 C 20,4 C 0,0 km/h (0 Bft)
26/07/2012 02:10 20,1 C 75 % 1014,3 hPa 0,0 mm 0,0 km/h (0 Bft) E-SE 112 0 min 0 W/m 15,5 C 20,1 C 0,0 km/h (0 Bft)
26/07/2012 02:20 19,9 C 76 % 1014,3 hPa 0,0 mm 0,0 km/h (0 Bft) E-SE 112 0 min 0 W/m 15,5 C 19,9 C 0,0 km/h (0 Bft)
26/07/2012 02:30 19,7 C 76 % 1014,3 hPa 0,0 mm 0,0 km/h (0 Bft) E-SE 112 0 min 0 W/m 15,3 C 19,7 C 0,0 km/h (0 Bft)
26/07/2012 02:40 19,5 C 77 % 1014,3 hPa 0,0 mm 0,0 km/h (0 Bft) E-SE 112 0 min 0 W/m 15,4 C 19,5 C 0,0 km/h (0 Bft)
26/07/2012 02:50 19,4 C 78 % 1014,3 hPa 0,0 mm 0,0 km/h (0 Bft) SE 135 0 min 0 W/m 15,5 C 19,4 C 0,0 km/h (0 Bft)
26/07/2012 03:02 19,4 C 79 % 1014,1 hPa 0,0 mm 0,0 km/h (0 Bft) E-SE 112 0 min 0 W/m 15,7 C 19,4 C 0,0 km/h (0 Bft)
26/07/2012 03:10 19,3 C 79 % 1014,0 hPa 0,0 mm 0,0 km/h (0 Bft) E-SE 112 0 min 0 W/m 15,6 C 19,3 C 0,0 km/h (0 Bft)
26/07/2012 03:20 19,0 C 79 % 1013,9 hPa 0,0 mm 0,0 km/h (0 Bft) E-SE 112 0 min 0 W/m 15,3 C 19,0 C 0,0 km/h (0 Bft)
26/07/2012 03:30 18,8 C 81 % 1013,9 hPa 0,0 mm 0,0 km/h (0 Bft) E-SE 112 0 min 0 W/m 15,5 C 18,8 C 0,0 km/h (0 Bft)
26/07/2012 03:40 18,8 C 81 % 1013,9 hPa 0,0 mm 0,4 km/h (0 Bft) E-SE 112 0 min 0 W/m 15,5 C 18,8 C 3,2 km/h (1 Bft)
26/07/2012 03:50 18,8 C 82 % 1013,9 hPa 0,0 mm 0,0 km/h (0 Bft) E-SE 112 0 min 0 W/m 15,7 C 18,8 C 0,0 km/h (0 Bft)
26/07/2012 04:00 18,6 C 82 % 1013,8 hPa 0,0 mm 0,0 km/h (0 Bft) N 360 0 min 0 W/m 15,5 C 18,6 C 0,0 km/h (0 Bft)
26/07/2012 04:10 18,5 C 82 % 1013,7 hPa 0,0 mm 0,4 km/h (0 Bft) E 90 0 min 0 W/m 15,4 C 18,5 C 0,4 km/h (0 Bft)
26/07/2012 04:20 18,3 C 82 % 1013,6 hPa 0,0 mm 0,0 km/h (0 Bft) E-SE 112 0 min 0 W/m 15,2 C 18,3 C 0,0 km/h (0 Bft)
26/07/2012 04:30 18,2 C 82 % 1013,7 hPa 0,0 mm 0,7 km/h (0 Bft) E-SE 112 0 min 0 W/m 15,1 C 18,2 C 4,3 km/h (1 Bft)
26/07/2012 04:40 18,2 C 82 % 1013,6 hPa 0,0 mm 0,0 km/h (0 Bft) E-SE 112 0 min 0 W/m 15,1 C 18,2 C 3,6 km/h (1 Bft)
26/07/2012 04:50 18,1 C 83 % 1013,6 hPa 0,0 mm 0,7 km/h (0 Bft) E 90 0 min 0 W/m 15,2 C 18,1 C 2,9 km/h (1 Bft)
26/07/2012 05:00 17,9 C 83 % 1013,6 hPa 0,0 mm 0,0 km/h (0 Bft) E 90 0 min 0 W/m 15,0 C 17,9 C 0,0 km/h (0 Bft)
26/07/2012 05:10 17,8 C 84 % 1013,8 hPa 0,0 mm 0,0 km/h (0 Bft) E 90 0 min 0 W/m 15,1 C 17,8 C 3,2 km/h (1 Bft)
26/07/2012 05:20 17,7 C 84 % 1013,7 hPa 0,0 mm 1,1 km/h (1 Bft) E-SE 112 0 min 0 W/m 15,0 C 17,7 C 4,0 km/h (1 Bft)
26/07/2012 05:30 17,8 C 85 % 1013,7 hPa 0,0 mm 1,1 km/h (1 Bft) E-SE 112 0 min 0 W/m 15,2 C 17,8 C 4,3 km/h (1 Bft)
26/07/2012 05:40 17,7 C 85 % 1013,7 hPa 0,0 mm 0,0 km/h (0 Bft) E-SE 112 0 min 0 W/m 15,1 C 17,7 C 0,0 km/h (0 Bft)
26/07/2012 05:50 17,5 C 85 % 1013,8 hPa 0,0 mm 0,0 km/h (0 Bft) E-SE 112 0 min 0 W/m 14,9 C 17,5 C 0,0 km/h (0 Bft)
26/07/2012 06:00 17,4 C 85 % 1013,7 hPa 0,0 mm 0,0 km/h (0 Bft) E 90 0 min 0 W/m 14,8 C 17,4 C 0,0 km/h (0 Bft)
26/07/2012 06:10 17,3 C 85 % 1013,7 hPa 0,0 mm 0,0 km/h (0 Bft) E 90 0 min 0 W/m 14,8 C 17,3 C 0,0 km/h (0 Bft)
26/07/2012 06:20 17,2 C 85 % 1013,7 hPa 0,0 mm 1,8 km/h (1 Bft) E-SE 112 0 min 0 W/m 14,7 C 17,2 C 1,8 km/h (1 Bft)
26/07/2012 06:30 17,2 C 86 % 1013,9 hPa 0,0 mm 0,0 km/h (0 Bft) E-SE 112 0 min 0 W/m 14,8 C 17,2 C 0,0 km/h (0 Bft)
26/07/2012 06:40 17,2 C 86 % 1013,9 hPa 0,0 mm 1,8 km/h (1 Bft) E 90 0 min 0 W/m 14,8 C 17,2 C 4,3 km/h (1 Bft)
26/07/2012 06:50 17,1 C 86 % 1014,0 hPa 0,0 mm 0,0 km/h (0 Bft) SE 135 0 min 0 W/m 14,7 C 17,1 C 0,0 km/h (0 Bft)
26/07/2012 07:00 16,9 C 86 % 1014,0 hPa 0,0 mm 0,0 km/h (0 Bft) SE 135 0 min 0 W/m 14,5 C 16,9 C 0,0 km/h (0 Bft)
26/07/2012 07:10 16,8 C 86 % 1014,0 hPa 0,0 mm 0,0 km/h (0 Bft) SE 135 0 min 0 W/m 14,4 C 16,8 C 0,0 km/h (0 Bft)
26/07/2012 07:20 16,9 C 87 % 1014,0 hPa 0,0 mm 0,0 km/h (0 Bft) SE 135 0 min 0 W/m 14,7 C 16,9 C 0,0 km/h (0 Bft)
26/07/2012 07:30 17,2 C 87 % 1014,0 hPa 0,0 mm 0,0 km/h (0 Bft) SE 135 0 min 0 W/m 15,0 C 17,2 C 0,0 km/h (0 Bft)
26/07/2012 07:40 17,6 C 87 % 1014,0 hPa 0,0 mm 0,4 km/h (0 Bft) E 90 0 min 0 W/m 15,4 C 17,6 C 3,2 km/h (1 Bft)
26/07/2012 07:50 17,9 C 86 % 1014,2 hPa 0,0 mm 2,2 km/h (1 Bft) E 90 0 min 0 W/m 15,5 C 17,9 C 4,0 km/h (1 Bft)
26/07/2012 08:00 18,3 C 85 % 1014,2 hPa 0,0 mm 0,0 km/h (0 Bft) E 90 0 min 0 W/m 15,7 C 18,3 C 0,0 km/h (0 Bft)
26/07/2012 08:10 18,8 C 84 % 1014,3 hPa 0,0 mm 0,0 km/h (0 Bft) E 90 0 min 0 W/m 16,0 C 18,8 C 0,0 km/h (0 Bft)
26/07/2012 08:20 19,5 C 83 % 1014,3 hPa 0,0 mm 0,0 km/h (0 Bft) E 90 0 min 0 W/m 16,5 C 19,5 C 0,0 km/h (0 Bft)
26/07/2012 08:30 20,3 C 81 % 1014,3 hPa 0,0 mm 0,0 km/h (0 Bft) E 90 0 min 0 W/m 16,9 C 20,3 C 0,0 km/h (0 Bft)
26/07/2012 08:40 21,1 C 80 % 1014,3 hPa 0,0 mm 0,0 km/h (0 Bft) E 90 0 min 0 W/m 17,5 C 21,1 C 0,0 km/h (0 Bft)
26/07/2012 08:50 21,8 C 78 % 1014,3 hPa 0,0 mm 0,0 km/h (0 Bft) E 90 0 min 0 W/m 17,8 C 21,8 C 0,0 km/h (0 Bft)
26/07/2012 09:00 22,5 C 77 % 1014,4 hPa 0,0 mm 0,0 km/h (0 Bft) E 90 0 min 0 W/m 18,3 C 22,5 C 0,0 km/h (0 Bft)
26/07/2012 09:10 23,3 C 75 % 1014,5 hPa 0,0 mm 0,0 km/h (0 Bft) E 90 0 min 0 W/m 18,6 C 23,3 C 0,0 km/h (0 Bft)
26/07/2012 09:20 24,2 C 73 % 1014,5 hPa 0,0 mm 0,0 km/h (0 Bft) E 90 0 min 0 W/m 19,0 C 24,2 C 0,0 km/h (0 Bft)
26/07/2012 09:30 25,1 C 72 % 1014,5 hPa 0,0 mm 0,0 km/h (0 Bft) E 90 0 min 0 W/m 19,7 C 25,1 C 0,0 km/h (0 Bft)
26/07/2012 09:40 25,9 C 69 % 1014,5 hPa 0,0 mm 0,4 km/h (0 Bft) SE 135 0 min 0 W/m 19,8 C 25,9 C 2,9 km/h (1 Bft)
26/07/2012 09:50 26,6 C 63 % 1014,6 hPa 0,0 mm 2,5 km/h (1 Bft) S-SO 202 0 min 0 W/m 19,0 C 26,6 C 4,0 km/h (1 Bft)
26/07/2012 10:00 27,1 C 61 % 1014,8 hPa 0,0 mm 2,9 km/h (1 Bft) S-SO 202 0 min 0 W/m 18,9 C 27,1 C 7,2 km/h (2 Bft)
26/07/2012 10:10 27,5 C 59 % 1014,8 hPa 0,0 mm 4,3 km/h (1 Bft) S 180 0 min 0 W/m 18,8 C 27,5 C 6,8 km/h (2 Bft)
26/07/2012 10:20 27,9 C 60 % 1014,8 hPa 0,0 mm 2,5 km/h (1 Bft) S-SE 157 0 min 0 W/m 19,4 C 27,9 C 4,0 km/h (1 Bft)
26/07/2012 10:30 28,4 C 57 % 1014,6 hPa 0,0 mm 0,0 km/h (0 Bft) S-SO 202 0 min 0 W/m 19,0 C 28,4 C 0,0 km/h (0 Bft)
26/07/2012 10:40 28,9 C 57 % 1014,8 hPa 0,0 mm 0,4 km/h (0 Bft) S-SO 202 0 min 0 W/m 19,5 C 28,9 C 3,6 km/h (1 Bft)
26/07/2012 10:50 29,3 C 56 % 1014,9 hPa 0,0 mm 0,0 km/h (0 Bft) O 270 0 min 0 W/m 19,6 C 29,3 C 0,0 km/h (0 Bft)
26/07/2012 11:00 29,8 C 54 % 1014,9 hPa 0,0 mm 2,9 km/h (1 Bft) S 180 0 min 0 W/m 19,5 C 29,8 C 3,2 km/h (1 Bft)
26/07/2012 11:10 30,2 C 53 % 1014,8 hPa 0,0 mm 0,7 km/h (0 Bft) S-SO 202 0 min 0 W/m 19,5 C 30,2 C 3,2 km/h (1 Bft)
26/07/2012 11:20 30,5 C 53 % 1014,8 hPa 0,0 mm 1,1 km/h (1 Bft) O-SO 247 0 min 0 W/m 19,8 C 30,5 C 4,3 km/h (1 Bft)
26/07/2012 11:30 30,9 C 51 % 1014,8 hPa 0,0 mm 2,2 km/h (1 Bft) S 180 0 min 0 W/m 19,6 C 30,9 C 3,6 km/h (1 Bft)
26/07/2012 11:40 31,3 C 51 % 1014,8 hPa 0,0 mm 4,3 km/h (1 Bft) O-NO 292 0 min 0 W/m 19,9 C 31,3 C 7,9 km/h (2 Bft)
26/07/2012 11:50 31,5 C 49 % 1014,8 hPa 0,0 mm 5,0 km/h (1 Bft) S-SO 202 0 min 0 W/m 19,5 C 31,5 C 6,1 km/h (2 Bft)
26/07/2012 12:00 31,8 C 49 % 1014,9 hPa 0,0 mm 0,7 km/h (0 Bft) SO 225 0 min 0 W/m 19,7 C 31,8 C 3,6 km/h (1 Bft)
26/07/2012 12:10 31,8 C 48 % 1014,9 hPa 0,0 mm 5,0 km/h (1 Bft) S-SO 202 0 min 0 W/m 19,4 C 31,8 C 7,9 km/h (2 Bft)
26/07/2012 12:20 31,8 C 49 % 1014,9 hPa 0,0 mm 2,5 km/h (1 Bft) SO 225 0 min 0 W/m 19,7 C 31,8 C 7,2 km/h (2 Bft)
26/07/2012 12:30 31,9 C 47 % 1014,9 hPa 0,0 mm 4,7 km/h (1 Bft) O-SO 247 0 min 0 W/m 19,2 C 31,9 C 8,6 km/h (2 Bft)
26/07/2012 12:40 32,0 C 48 % 1014,8 hPa 0,0 mm 1,4 km/h (1 Bft) S-SO 202 0 min 0 W/m 19,6 C 32,0 C 6,1 km/h (2 Bft)
26/07/2012 12:50 32,4 C 46 % 1014,6 hPa 0,0 mm 2,9 km/h (1 Bft) S 180 0 min 0 W/m 19,3 C 32,4 C 7,9 km/h (2 Bft)
26/07/2012 13:00 32,6 C 46 % 1014,4 hPa 0,0 mm 3,6 km/h (1 Bft) O-NO 292 0 min 0 W/m 19,4 C 32,6 C 3,6 km/h (1 Bft)
26/07/2012 13:10 32,8 C 44 % 1014,4 hPa 0,0 mm 4,0 km/h (1 Bft) N-NO 337 0 min 0 W/m 18,9 C 32,8 C 8,6 km/h (2 Bft)
26/07/2012 13:20 33,1 C 43 % 1014,5 hPa 0,0 mm 0,0 km/h (0 Bft) O-SO 247 0 min 0 W/m 18,8 C 33,1 C 0,0 km/h (0 Bft)
26/07/2012 13:30 33,1 C 42 % 1014,6 hPa 0,0 mm 1,4 km/h (1 Bft) O-SO 247 0 min 0 W/m 18,4 C 33,1 C 1,4 km/h (1 Bft)
26/07/2012 13:40 33,5 C 43 % 1014,4 hPa 0,0 mm 0,0 km/h (0 Bft) O-NO 292 0 min 0 W/m 19,2 C 33,5 C 2,9 km/h (1 Bft)
26/07/2012 13:50 33,8 C 41 % 1014,3 hPa 0,0 mm 1,8 km/h (1 Bft) SO 225 0 min 0 W/m 18,7 C 33,8 C 4,3 km/h (1 Bft)
26/07/2012 14:00 33,8 C 40 % 1014,3 hPa 0,0 mm 6,5 km/h (2 Bft) S-SO 202 0 min 0 W/m 18,3 C 33,8 C 7,2 km/h (2 Bft)
26/07/2012 14:10 33,6 C 41 % 1014,1 hPa 0,0 mm 2,2 km/h (1 Bft) S-SO 202 0 min 0 W/m 18,5 C 33,6 C 4,3 km/h (1 Bft)
26/07/2012 14:20 33,7 C 40 % 1014,1 hPa 0,0 mm 0,7 km/h (0 Bft) O-SO 247 0 min 0 W/m 18,2 C 33,7 C 0,7 km/h (0 Bft)
26/07/2012 14:30 33,9 C 40 % 1014,1 hPa 0,0 mm 1,1 km/h (1 Bft) N 360 0 min 0 W/m 18,4 C 33,9 C 3,6 km/h (1 Bft)
26/07/2012 14:40 34,0 C 39 % 1014,0 hPa 0,0 mm 0,0 km/h (0 Bft) O-SO 247 0 min 0 W/m 18,0 C 34,0 C 0,0 km/h (0 Bft)
26/07/2012 14:50 34,0 C 39 % 1014,0 hPa 0,0 mm 2,2 km/h (1 Bft) O-NO 292 0 min 0 W/m 18,0 C 34,0 C 4,7 km/h (1 Bft)
26/07/2012 15:00 34,2 C 39 % 1014,0 hPa 0,0 mm 2,9 km/h (1 Bft) NO 315 0 min 0 W/m 18,2 C 34,2 C 4,3 km/h (1 Bft)
26/07/2012 15:10 34,4 C 37 % 1013,9 hPa 0,0 mm 1,4 km/h (1 Bft) O-SO 247 0 min 0 W/m 17,6 C 34,4 C 4,0 km/h (1 Bft)
26/07/2012 15:20 34,6 C 37 % 1013,9 hPa 0,0 mm 2,5 km/h (1 Bft) S-SO 202 0 min 0 W/m 17,7 C 34,6 C 4,0 km/h (1 Bft)
26/07/2012 15:30 34,5 C 35 % 1013,9 hPa 0,0 mm 7,2 km/h (2 Bft) SO 225 0 min 0 W/m 16,8 C 34,5 C 8,6 km/h (2 Bft)
26/07/2012 15:40 34,4 C 36 % 1013,7 hPa 0,0 mm 0,0 km/h (0 Bft) N-NO 337 0 min 0 W/m 17,1 C 34,4 C 2,9 km/h (1 Bft)
26/07/2012 15:50 34,3 C 33 % 1013,7 hPa 0,0 mm 7,6 km/h (2 Bft) SO 225 0 min 0 W/m 15,7 C 34,3 C 10,1 km/h (2 Bft)
26/07/2012 16:00 33,9 C 35 % 1013,6 hPa 0,0 mm 4,0 km/h (1 Bft) S-SO 202 0 min 0 W/m 16,2 C 33,9 C 8,3 km/h (2 Bft)
26/07/2012 16:10 33,8 C 35 % 1013,6 hPa 0,0 mm 5,8 km/h (2 Bft) S 180 0 min 0 W/m 16,2 C 33,8 C 11,9 km/h (2 Bft)
26/07/2012 16:20 33,9 C 35 % 1013,6 hPa 0,0 mm 7,2 km/h (2 Bft) S-SO 202 0 min 0 W/m 16,2 C 33,9 C 7,2 km/h (2 Bft)
26/07/2012 16:30 34,1 C 33 % 1013,6 hPa 0,0 mm 2,2 km/h (1 Bft) O-SO 247 0 min 0 W/m 15,5 C 34,1 C 2,2 km/h (1 Bft)
26/07/2012 16:40 34,3 C 33 % 1013,6 hPa 0,0 mm 6,1 km/h (2 Bft) SO 225 0 min 0 W/m 15,7 C 34,3 C 12,2 km/h (2 Bft)
26/07/2012 16:50 34,2 C 35 % 1013,6 hPa 0,0 mm 0,4 km/h (0 Bft) SO 225 0 min 0 W/m 16,5 C 34,2 C 4,0 km/h (1 Bft)
26/07/2012 17:00 34,3 C 36 % 1013,5 hPa 0,0 mm 0,0 km/h (0 Bft) SO 225 0 min 0 W/m 17,0 C 34,3 C 0,0 km/h (0 Bft)
26/07/2012 17:10 34,3 C 35 % 1013,3 hPa 0,0 mm 4,7 km/h (1 Bft) S-SE 157 0 min 0 W/m 16,6 C 34,3 C 6,1 km/h (2 Bft)
_ Min-Heure 07:10 16:40 17:10 - 17:00 - - - - 07:10 07:10 17:00
Minimum _ 16,8 C 33 % 1013,3 hPa - 0,0 km/h (0 Bft) - - - - 14,4 C 16,8 C 0,0 km/h (0 Bft)
_ Max-Heure 15:20 07:40 12:30 17:10 15:50 - - 17:10 17:10 11:40 15:20 16:40
Maximum _ 34,6 C 87 % 1014,9 hPa 0,0 mm 7,6 km/h
SO (2 Bft)
- - 0 min 0 W/m 19,9 C 34,6 C 12,2 km/h
SO (2 Bft)
Moyenne _ 25,1 C 64 % 1014,2 hPa #0,0 mm 1,3 km/h (1 Bft) E-SE - #0 min. 0 W/m 16,9 C 25,1 C 2,6 km/h (1 Bft)
Saint Bonnet de Bellac- Haute Vienne - France